Flag for Brazil Weather past 2 weeks in Boa Vista, Roraima, Brazil

Now
77 °F

Passing clouds.


Feels Like: 78 °F
Forecast: 75 / 88 °F
Wind: 5 mph from Northeast

Location: Boa Vista Aeropor-To

Current Time: Jul 30, 2015 at 9:05:58 AM

Latest Report: Jul 30, 2015 at 8:00 AM


Visibility: N/A

Pressure: 29.98 "Hg

Humidity: 89%

Dew point: 73 °F

Location of Boa VistaLocation

Historic Weather in Boa Vista — Graph

°F

Boa Vista temperature yesterday

Maximum temperature yesterday: 90 °F (at 3:00 PM)
Minimum temperature yesterday: 73 °F (at 4:00 AM)
Average temperature yesterday: 79 °F

Past Weeks' High & Low Weather Summary

 TemperatureHumidityPressure
High90 °F (Jul 29, 3:00 PM)100% (Jul 15, 3:00 PM)30.07 "Hg (Jul 15, 3:00 PM)
Low32 °F (Jul 22, 5:00 AM)19% (Jul 21, 7:00 PM)29.80 "Hg (Jul 27, 4:00 PM)
Average77 °F80%29.94 "Hg
* Reported Jul 15 8:00 AM — Jul 30 8:00 AM, Boa Vista, Weather by CustomWeather, © 2015

Note: Actual official high and low records may vary slightly from our data, if they occured in-between our weather recording intervals... More about our weather records

Advertising

Boa Vista weather history for previous 24 hours

 ConditionsComfort  
Time TempWeatherWind HumidityBarometerVisibility
8:00 AM
Thu, Jul 30
77 °FPassing clouds.5 mph89%29.98 "HgN/A
7:00 AM75 °FScattered clouds.2 mph89%29.95 "HgN/A
6:00 AM73 °FPassing clouds.2 mph94%29.92 "HgN/A
5:00 AM73 °FPartly cloudy.2 mph94%29.92 "HgN/A
4:00 AM75 °FPartly cloudy.2 mph89%29.92 "HgN/A
3:00 AM75 °FPartly cloudy.2 mph89%29.89 "HgN/A
2:00 AM75 °FPassing clouds.3 mph89%29.92 "HgN/A
1:00 AM75 °FPassing clouds.3 mph89%29.92 "HgN/A
12:00 AM75 °FPassing clouds.3 mph89%29.95 "HgN/A
11:00 PM
Wed, Jul 29
77 °FPassing clouds.3 mph83%29.95 "HgN/A
10:00 PM77 °FPassing clouds.2 mph83%29.92 "HgN/A
9:00 PM77 °FPassing clouds.5 mph83%29.92 "HgN/A
8:00 PM77 °FPassing clouds.5 mph83%29.89 "HgN/A
7:00 PM77 °FPartly cloudy.1 mph79%29.86 "HgN/A
6:00 PM84 °FScattered clouds.8 mph55%29.83 "HgN/A
5:00 PM79 °FThunderstorms. Broken clouds.5 mph74%29.80 "HgN/A
4:00 PM88 °FThunderstorms. Broken clouds.9 mph55%29.83 "HgN/A
3:00 PM90 °FScattered showers. Partly sunny.5 mph52%29.83 "HgN/A
2:00 PM88 °FScattered clouds.6 mph55%29.86 "HgN/A
1:00 PM88 °FScattered showers. Partly sunny.2 mph59%29.89 "HgN/A
12:00 PM86 °FScattered clouds.10 mph62%29.95 "HgN/A
11:00 AM84 °FScattered showers. Partly sunny.2 mph70%29.95 "HgN/A
10:00 AM82 °FPartly sunny.3 mph74%29.98 "HgN/A
9:00 AM81 °FPassing clouds.5 mph79%29.95 "HgN/A
Weather by CustomWeather, © 2015

See weather overviewHow to use our weather pages